Location: Holyhead Bay
(53.3667°N, 4.6667°W)
Time: 23:16:37
(UTC+00:00)

Cosmos 1408 Rocket - Pass Details

Date: 16 April 2021
Orbit: 601 x 631 km, 82.6° (Epoch: 16 May)

Event Time Altitude Azimuth Distance (km) Brightness Sun altitude
Rises 00:26:03 0° 331° (NNW) 2,865 7.9 -26.5°
Reaches altitude 10° 00:30:44 10° 285° (WNW) 1,954 6.2 -26.4°
Maximum altitude 00:30:57 10° 282° (WNW) 1,952 6.2 -26.4°
Enters shadow 00:31:06 10° 279° (W) 1,953 6.2 -26.4°
